When you browse on this site, cookies collect data to enhance your experience and personalize the content and advertising you see.
Visit our Privacy Policy to learn more. By continuing to use the site, you agree to this use of cookies and data.
  • In Czech Republic
  • List of Countries
  • For 7 days
  • Water Temperature
  • Weather Map
  • Weather Widgets
  • user-avatar
    Login

    Hourly Weather Sidorovka

    Today, 22 August, Thursday

    Time Temperature Precipitation Wind Pressure Humidity
    00:00 +19°C° 0.1 mm 4 mps 749 mmHg 89%
    01:00 +17°C° 0.1 mm 5 mps 750 mmHg 91%
    02:00 +16°C° 0 mm 6 mps 750 mmHg 92%
    03:00 +16°C° 0 mm 6 mps 750 mmHg 90%
    04:00 +15°C° 0 mm 6 mps 751 mmHg 88%
    05:00 +15°C° 0 mm 6 mps 751 mmHg 86%
    06:00 +15°C° 0 mm 6 mps 751 mmHg 85%
    07:00 +15°C° 0 mm 6 mps 752 mmHg 84%
    08:00 +15°C° 0 mm 6 mps 753 mmHg 84%
    09:00 +16°C° 0 mm 5 mps 753 mmHg 82%
    10:00 +16°C° 0 mm 5 mps 753 mmHg 79%
    11:00 +17°C° 0 mm 5 mps 753 mmHg 77%
    12:00 +19°C° 0 mm 5 mps 754 mmHg 74%
    13:00 +20°C° 0 mm 5 mps 754 mmHg 71%
    14:00 +21°C° 0 mm 4 mps 754 mmHg 68%
    15:00 +21°C° 0 mm 4 mps 754 mmHg 70%
    16:00 +21°C° 0 mm 4 mps 754 mmHg 71%
    17:00 +20°C° 0 mm 4 mps 754 mmHg 72%
    18:00 +19°C° 0 mm 3 mps 754 mmHg 76%
    19:00 +17°C° 0 mm 3 mps 754 mmHg 80%
    20:00 +16°C° 0 mm 3 mps 754 mmHg 84%
    21:00 +14°C° 0 mm 3 mps 755 mmHg 84%
    22:00 +13°C° 0 mm 3 mps 755 mmHg 84%
    23:00 +14°C° 0 mm 2 mps 755 mmHg 85%

    Tomorrow, 23 August, Friday

    Time Temperature Precipitation Wind Pressure Humidity
    00:00 +14°C° 0 mm 2 mps 755 mmHg 85%
    01:00 +13°C° 0 mm 2 mps 755 mmHg 85%
    02:00 +13°C° 0 mm 2 mps 756 mmHg 86%
    03:00 +13°C° 0 mm 2 mps 756 mmHg 86%
    04:00 +12°C° 0 mm 2 mps 756 mmHg 87%
    05:00 +12°C° 0 mm 1 mps 755 mmHg 88%
    06:00 +14°C° 0 mm 1 mps 756 mmHg 83%
    07:00 +15°C° 0 mm 2 mps 756 mmHg 78%
    08:00 +17°C° 0 mm 2 mps 756 mmHg 73%
    09:00 +18°C° 0 mm 2 mps 756 mmHg 68%
    10:00 +19°C° 0 mm 2 mps 756 mmHg 63%
    11:00 +21°C° 0 mm 2 mps 756 mmHg 58%
    12:00 +21°C° 0 mm 2 mps 756 mmHg 55%
    13:00 +23°C° 0 mm 2 mps 756 mmHg 53%
    14:00 +23°C° 0 mm 2 mps 756 mmHg 51%
    15:00 +23°C° 0 mm 1 mps 755 mmHg 53%
    16:00 +23°C° 0 mm 1 mps 755 mmHg 56%
    17:00 +23°C° 0 mm 1 mps 755 mmHg 58%
    18:00 +21°C° 0 mm 1 mps 755 mmHg 64%
    19:00 +19°C° 0 mm 1 mps 755 mmHg 69%
    20:00 +15°C° 0 mm 0 mps 755 mmHg 75%
    21:00 +14°C° 0 mm 0 mps 755 mmHg 77%
    22:00 +14°C° 0 mm 0 mps 755 mmHg 79%
    23:00 +13°C° 0 mm 0 mps 755 mmHg 81%

    Day after tomorrow, 24 August, Saturday

    Time Temperature Precipitation Wind Pressure Humidity
    00:00 +13°C° 0 mm 0 mps 755 mmHg 82%
    01:00 +12°C° 0 mm 0 mps 755 mmHg 82%
    02:00 +12°C° 0 mm 0 mps 755 mmHg 83%
    03:00 +12°C° 0 mm 0 mps 754 mmHg 84%
    04:00 +13°C° 0 mm 1 mps 754 mmHg 84%
    05:00 +12°C° 0 mm 1 mps 754 mmHg 85%
    06:00 +14°C° 0 mm 1 mps 754 mmHg 81%
    07:00 +16°C° 0 mm 1 mps 754 mmHg 76%
    08:00 +19°C° 0 mm 1 mps 754 mmHg 72%
    09:00 +19°C° 0 mm 2 mps 754 mmHg 67%
    10:00 +20°C° 0 mm 2 mps 754 mmHg 63%
    11:00 +23°C° 0 mm 2 mps 754 mmHg 59%
    12:00 +23°C° 0 mm 2 mps 754 mmHg 57%
    13:00 +24°C° 0 mm 2 mps 754 mmHg 55%
    14:00 +24°C° 0 mm 2 mps 753 mmHg 53%
    15:00 +24°C° 0 mm 2 mps 753 mmHg 57%
    16:00 +24°C° 0 mm 2 mps 753 mmHg 61%
    17:00 +24°C° 0 mm 2 mps 753 mmHg 65%
    18:00 +22°C° 0 mm 1 mps 753 mmHg 70%
    19:00 +20°C° 0 mm 1 mps 753 mmHg 76%
    20:00 +18°C° 0 mm 1 mps 753 mmHg 81%
    21:00 +18°C° 0 mm 1 mps 753 mmHg 82%
    22:00 +16°C° 0 mm 1 mps 753 mmHg 83%
    23:00 +16°C° 0 mm 2 mps 753 mmHg 85%

    25 August, Sunday

    Time Temperature Precipitation Wind Pressure Humidity
    00:00 +15°C° 0 mm 2 mps 753 mmHg 86%
    01:00 +15°C° 0 mm 2 mps 753 mmHg 88%
    02:00 +15°C° 0 mm 2 mps 753 mmHg 90%
    03:00 +15°C° 0 mm 2 mps 753 mmHg 91%
    04:00 +15°C° 0 mm 2 mps 753 mmHg 92%
    05:00 +14°C° 0 mm 2 mps 753 mmHg 93%
    06:00 +16°C° 0 mm 2 mps 753 mmHg 89%
    07:00 +17°C° 0 mm 2 mps 753 mmHg 86%
    08:00 +19°C° 0 mm 2 mps 753 mmHg 82%
    09:00 +20°C° 0 mm 2 mps 753 mmHg 76%
    10:00 +21°C° 0 mm 2 mps 754 mmHg 71%
    11:00 +23°C° 0 mm 2 mps 754 mmHg 65%
    12:00 +24°C° 0 mm 2 mps 754 mmHg 62%
    13:00 +24°C° 0 mm 2 mps 753 mmHg 60%
    14:00 +25°C° 0 mm 2 mps 753 mmHg 57%
    15:00 +24°C° 0 mm 2 mps 753 mmHg 60%
    16:00 +24°C° 0 mm 2 mps 753 mmHg 63%
    17:00 +24°C° 0 mm 2 mps 753 mmHg 66%
    18:00 +21°C° 0 mm 2 mps 753 mmHg 72%
    19:00 +19°C° 0 mm 2 mps 753 mmHg 77%
    20:00 +17°C° 0 mm 2 mps 753 mmHg 82%
    21:00 +18°C° 0 mm 1 mps 754 mmHg 84%
    22:00 +16°C° 0 mm 1 mps 754 mmHg 86%
    23:00 +15°C° 0 mm 1 mps 754 mmHg 88%

    26 August, Monday

    Time Temperature Precipitation Wind Pressure Humidity
    00:00 +15°C° 0 mm 1 mps 754 mmHg 88%
    01:00 +15°C° 0 mm 1 mps 754 mmHg 89%
    02:00 +14°C° 0 mm 1 mps 754 mmHg 89%
    03:00 +14°C° 0 mm 1 mps 754 mmHg 89%
    04:00 +14°C° 0 mm 1 mps 754 mmHg 89%
    05:00 +13°C° 0 mm 1 mps 754 mmHg 89%
    06:00 +15°C° 0 mm 1 mps 754 mmHg 84%
    07:00 +18°C° 0 mm 1 mps 754 mmHg 79%
    08:00 +19°C° 0 mm 1 mps 754 mmHg 73%
    09:00 +21°C° 0 mm 1 mps 754 mmHg 69%
    10:00 +22°C° 0 mm 1 mps 754 mmHg 65%
    11:00 +23°C° 0 mm 1 mps 754 mmHg 61%
    12:00 +24°C° 0 mm 1 mps 754 mmHg 59%
    13:00 +24°C° 0 mm 1 mps 754 mmHg 57%
    14:00 +23°C° 0 mm 0 mps 753 mmHg 54%
    15:00 +23°C° 0 mm 0 mps 753 mmHg 56%
    16:00 +22°C° 0 mm 0 mps 753 mmHg 57%
    17:00 +22°C° 0 mm 0 mps 752 mmHg 59%
    18:00 +20°C° 0 mm 0 mps 752 mmHg 64%
    19:00 +20°C° 0 mm 1 mps 752 mmHg 69%
    20:00 +19°C° 0 mm 1 mps 752 mmHg 75%
    21:00 +18°C° 0 mm 1 mps 752 mmHg 77%
    22:00 +16°C° 0 mm 1 mps 752 mmHg 79%
    23:00 +15°C° 0 mm 0 mps 752 mmHg 81%

    27 August, Tuesday

    Time Temperature Precipitation Wind Pressure Humidity
    00:00 +16°C° 0 mm 1 mps 752 mmHg 82%
    01:00 +15°C° 0 mm 1 mps 752 mmHg 84%
    02:00 +15°C° 0 mm 1 mps 751 mmHg 85%
    03:00 +15°C° 0 mm 1 mps 751 mmHg 86%
    04:00 +15°C° 0 mm 1 mps 751 mmHg 87%
    05:00 +14°C° 0 mm 2 mps 751 mmHg 88%
    06:00 +16°C° 0 mm 2 mps 751 mmHg 85%
    07:00 +17°C° 0 mm 2 mps 751 mmHg 82%
    08:00 +19°C° 0 mm 2 mps 751 mmHg 78%
    09:00 +20°C° 0 mm 3 mps 751 mmHg 75%
    10:00 +21°C° 0 mm 3 mps 751 mmHg 71%
    11:00 +24°C° 0 mm 3 mps 751 mmHg 67%
    12:00 +24°C° 0.1 mm 3 mps 751 mmHg 66%
    13:00 +23°C° 0.1 mm 4 mps 750 mmHg 65%
    14:00 +25°C° 0.1 mm 4 mps 750 mmHg 65%
    15:00 +23°C° 0.1 mm 4 mps 750 mmHg 68%
    16:00 +24°C° 0.1 mm 3 mps 750 mmHg 70%
    17:00 +22°C° 0.1 mm 3 mps 750 mmHg 73%
    18:00 +21°C° 0 mm 3 mps 750 mmHg 77%
    19:00 +19°C° 0 mm 3 mps 750 mmHg 81%
    20:00 +17°C° 0 mm 3 mps 750 mmHg 85%
    21:00 +16°C° 0 mm 3 mps 751 mmHg 84%
    22:00 +16°C° 0 mm 3 mps 751 mmHg 84%
    23:00 +14°C° 0 mm 3 mps 751 mmHg 83%
    Show more